Regional Weather Roundup
Issued by NWS

Home | Current Version | Previous Version | Graphics & Text | Print | Product List | Glossary Off
Versions: 1 2 3 4 5 6 7 8 9 10 11 12 13 14 15 16 17 18 19 20 21 22 23 24 25 26 27 28 29 30 31 32 33 34 35 36 37 38 39 40 41 42 43 44 45 46 47 48 49 50

000
ASUS43 KLSX 031410
RWRMO

WEATHER SUMMARY FOR MISSOURI
NATIONAL WEATHER SERVICE SPRINGFIELD MO
800 AM CST SAT DEC 03 2016

NOTE: "FAIR" INDICATES FEW OR NO CLOUDS BELOW 12,000 FEET WITH NO
       SIGNIFICANT WEATHER AND/OR OBSTRUCTIONS TO VISIBILITY.
       CURRENT SKY AND/OR WEATHER CONDITIONS ARE NOT AVAILABLE FOR
       CHILLICOTHE AND FARMINGTON.

MOZ001>031-035>038-043-044-053-054-031500-
...NORTHERN AND WESTERN MISSOURI...

CITY           SKY/WX    TMP DP  RH WIND       PRES   REMARKS
KANSAS CTY INT CLOUDY    33  27  78 E3        30.29R
KANSAS C DTWN  CLOUDY    34  30  85 NE5       30.30S WCI  30
LEE`S SUMMIT   CLOUDY    34  28  79 E8        30.29R WCI  27
ST JOSEPH      PTCLDY    25  23  92 CALM      30.30F
CHILLICOTHE      N/A     26  25  96 CALM      30.33S
KIRKSVILLE     MOCLDY    29  27  92 E3        30.33R

$$
MOZ066>068-077>081-088>096-101>105-031500-
...SOUTHWEST MISSOURI...

CITY           SKY/WX    TMP DP  RH WIND       PRES   REMARKS
SPRINGFIELD    CLOUDY    44  30  57 SE10      30.26R
JOPLIN         CLOUDY    44  32  62 E8        30.23F
BRANSON        CLOUDY    41  32  70 SE9       30.27R

$$
MOZ032>034-039>042-045>050-055>058-069>072-031500-
...CENTRAL MISSOURI...

CITY           SKY/WX    TMP DP  RH WIND       PRES   REMARKS
COLUMBIA       PTCLDY    32  28  85 E7        30.33R WCI  26
JEFFERSON CITY CLOUDY    29  27  92 CALM      30.34R
ROLLA          PTCLDY    31  28  89 E5        30.30R WCI  26
WHITEMAN AFB   CLOUDY    32  31  98 SE3       30.31R
WARRENSBURG    CLOUDY    32  28  86 CALM      30.32R
OSAGE BEACH    PTCLDY    35  27  72 E3        30.32R

$$
MOZ051-052-059>065-031500-
...EAST CENTRAL MISSOURI...

CITY           SKY/WX    TMP DP  RH WIND       PRES   REMARKS
ST LOUIS INTL  MOCLDY    33  29  85 SE5       30.35F WCI  29
SPIRIT OF STL  PTCLDY    28  28 100 CALM      30.35F
ST CHARLES     PTCLDY    30  29  96 SE3       30.35F

$$
MOZ072>076-082>087-097>100-106>115-031500-
...SOUTH CENTRAL AND SOUTHEAST MISSOURI...

CITY           SKY/WX    TMP DP  RH WIND       PRES   REMARKS
CAPE GIRARDEAU PTCLDY    36  31  82 E5        30.35F
FARMINGTON     PTCLDY    31  29  92 CALM      30.35R
POPLAR BLUFF   CLOUDY    38  34  85 NE6       30.33F
WEST PLAINS    CLOUDY    38  31  76 E6        30.31R

$$



USA.gov is the U.S. government's official web portal to all federal, state and local government web resources and services.